Regional Weather Roundup
Issued by NWS

Home | Current Version | Previous Version | Text Only | Print | Product List | Glossary On
Versions: 1 2 3 4 5 6 7 8 9 10 11 12 13 14 15 16 17 18 19 20 21 22 23 24 25 26 27 28 29 30 31 32 33 34 35 36 37 38 39 40 41 42 43 44 45 46 47 48 49 50
000
ASUS43 KFSD 240910
RWRSD

WEATHER ROUNDUP FOR SOUTH DAKOTA
NATIONAL WEATHER SERVICE SIOUX FALLS SD
400 AM CDT MON APR 24 2017

NOTE: "FAIR" INDICATES FEW OR NO CLOUDS BELOW 12,000 FEET WITH NO
SIGNIFICANT WEATHER AND/OR OBSTRUCTIONS TO VISIBILITY.


SDZ001>005-009-010-012>017-241000-
NORTHWEST AND NORTH CENTRAL SOUTH DAKOTA

CITY           SKY/WX    TMP DP  RH WIND       PRES   REMARKS
BUFFALO          N/A     34  33  96 NE8       29.57R WCI  27
FAITH            N/A     33  33 100 NE17      29.58R WCI  22
MOBRIDGE       LGT RAIN  37  33  85 NE15G22   29.56F
$$

SDZ012>016-024>037-041>051-057-063-072>074-241000-
SOUTHWEST AND SOUTH CENTRAL SOUTH DAKOTA

CITY           SKY/WX    TMP DP  RH WIND       PRES   REMARKS
RAPID CTY ARPT CLOUDY    39  37  92 N5        29.55F
PIERRE         LGT RAIN  40  36  86 N10       29.54F
CUSTER         CLOUDY    49  35  58 W10       29.58F
ELLSWORTH AFB  MOCLDY    40  40 100 E6        29.55
PHILIP         CLOUDY    39  37  92 NE5       29.55F
PINE RIDGE     MOCLDY    44  41  89 N6        29.56F
SPEARFISH      FOG       41  41 100 NW8       29.63R VSB<1/4
WINNER         FAIR      57  35  43 S22G29    29.53F
$$

SDZ004>011-016>023-039-040-241000-
NORTHEAST SOUTH DAKOTA

CITY           SKY/WX    TMP DP  RH WIND       PRES   REMARKS
ABERDEEN       CLOUDY    41  37  86 NW8       29.60F
WATERTOWN      CLOUDY    51  36  56 S12       29.65F
BROOKINGS      CLOUDY    53  34  48 S15G23    29.68F
SISSETON         N/A     40  38  93 SE5       29.65F
$$

SDZ017-020-022-023-036>040-048>070-241000-
SOUTHEAST SOUTH DAKOTA

CITY           SKY/WX    TMP DP  RH WIND       PRES   REMARKS
SIOUX FALLS    CLOUDY    54  35  48 S17       29.69F
HURON          CLOUDY    53  37  54 S13       29.60F
CHAMBERLAIN    CLOUDY    59  37  44 S17G24    29.56F
MITCHELL       CLOUDY    56  37  49 S13       29.62F
YANKTON        CLOUDY    55  30  38 S16G24    29.67F
$$

ABBREVIATIONS USED IN REMARKS
   TC - TEMPERATURE IN CELSIUS
  WCI - WIND CHILL INDEX
   HX - HEAT INDEX
  VSB - VISIBILITY




USA.gov is the U.S. government's official web portal to all federal, state and local government web resources and services.